Weather History for Columbia, MO

Change the Weather History Date:

Tuesday, November 20, 2012

  Actual Average Record
Temperature  
Mean Temperature 51 °F 42 °F  
Max Temperature 62 °F 52 °F 80 °F (1897)
Min Temperature 39 °F 33 °F 12 °F (1937)
Degree Days  
Heating Degree Days 14 23  
Month to date heating degree days 339 365  
Since 1 July heating degree days 736 730  
Cooling Degree Days 0 0  
Month to date cooling degree days 3 0  
Year to date cooling degree days 1896 1247  
Growing Degree Days 2 (Base 50)    
Moisture  
Dew Point 43 °F    
Average Humidity 80    
Maximum Humidity 100    
Minimum Humidity 60    
Precipitation  
Precipitation 0.00 in 0.11 in 2.16 in (1994)
Month to date precipitation 0.96 2.17  
Year to date precipitation 29.11 39.10  
Snow  
Snow 0.00 in 0.00 in 3.90 in (1926)
Month to date snowfall 0.0 0.4  
Since 1 July snowfall 0.0 0.4  
Since 1 September snowfall 0.0 0.4  
Snow Depth 0.00 in    
Sea Level Pressure  
Sea Level Pressure 30.14 in    
Wind  
Wind Speed 6 mph (West)    
Max Wind Speed 14 mph    
Max Gust Speed 16 mph    
Visibility 6 miles    
Events Fog    
T = Trace of Precipitation, MM = Missing Value Source: NWS Daily Summary

Daily Weather History Graph

Daily Weather History Graph

Search for Another Location

Airport:

Trip Planner

Search our weather history database for the weather conditions in past years. The results will help you decide how hot, cold, wet, or windy it might be!

Date:

Astronomy

Nov. 20, 2012 Rise Set
Actual Time 6:57 AM CST 4:51 PM CST
Civil Twilight 6:28 AM CST 5:20 PM CST
Nautical Twilight 5:56 AM CST 5:52 PM CST
Astronomical Twilight 5:24 AM CST 6:24 PM CST
Moon 12:33 PM CST (11/20) No Moon Set
Length of Visible Light 10h 51m
Length of Day
9h 54m
First Quarter, 51% of the Moon is Illuminated
Nov 20
First Quarter
Nov 28
Full
Dec 6
Last Quarter
Dec 13
New
Dec 19
First Quarter

Hourly Weather History & Observations

Time (CST) Temp. Windchill Dew Point Humidity Pressure Visibility Wind Dir Wind Speed Gust Speed Precip Events Conditions
12:54 AM 44.1 °F 40.8 °F 43.0 °F 96% 30.10 in 8.0 mi South 5.8 mph - N/A   Clear
1:51 AM 42.8 °F 38.6 °F 41.0 °F 93% 30.09 in 2.0 mi South 6.9 mph - N/A   Clear
1:54 AM 43.0 °F 38.8 °F 41.0 °F 93% 30.09 in 2.0 mi South 6.9 mph - N/A   Clear
2:12 AM 44.6 °F 40.7 °F 42.8 °F 93% 30.09 in 6.0 mi SSW 6.9 mph - N/A   Clear
2:54 AM 41.0 °F 36.4 °F 39.9 °F 96% 30.09 in 2.5 mi South 6.9 mph - N/A   Clear
3:13 AM 42.8 °F 39.3 °F 39.2 °F 87% 30.09 in 0.8 mi SSW 5.8 mph - N/A   Clear
3:39 AM 42.8 °F 40.1 °F 41.0 °F 93% 30.08 in 0.2 mi South 4.6 mph - N/A Fog Fog
3:54 AM 43.0 °F 41.3 °F 42.1 °F 97% 30.09 in 0.5 mi SSW 3.5 mph - N/A Fog Fog
4:12 AM 42.8 °F 41.1 °F 42.8 °F 100% 30.08 in 0.2 mi SW 3.5 mph - N/A Fog Fog
4:49 AM 42.8 °F 39.3 °F 39.2 °F 87% 30.09 in 0.2 mi WSW 5.8 mph - N/A Fog Fog
4:54 AM 42.1 °F 38.4 °F 41.0 °F 96% 30.10 in 0.5 mi WSW 5.8 mph - N/A Fog Fog
5:01 AM 42.8 °F 39.3 °F 41.0 °F 93% 30.10 in 2.0 mi West 5.8 mph - N/A   Clear
5:10 AM 44.6 °F 40.7 °F 42.8 °F 93% 30.10 in 4.0 mi West 6.9 mph - N/A   Clear
5:54 AM 44.1 °F 41.5 °F 43.0 °F 96% 30.11 in 4.0 mi WSW 4.6 mph - N/A   Clear
6:54 AM 44.1 °F 39.0 °F 43.0 °F 96% 30.12 in 5.0 mi WNW 9.2 mph - N/A   Clear
7:54 AM 45.0 °F 40.6 °F 44.1 °F 97% 30.14 in 5.0 mi WNW 8.1 mph - N/A   Clear
8:54 AM 48.0 °F - 43.0 °F 83% 30.15 in 8.0 mi WNW 8.1 mph - N/A   Clear
9:54 AM 51.1 °F - 44.1 °F 77% 30.15 in 9.0 mi WNW 6.9 mph - N/A   Clear
10:54 AM 54.0 °F - 44.1 °F 69% 30.14 in 10.0 mi West 6.9 mph - N/A   Clear
11:54 AM 57.0 °F - 44.1 °F 62% 30.14 in 10.0 mi WNW 9.2 mph - N/A   Clear
12:54 PM 60.1 °F - 46.0 °F 60% 30.13 in 10.0 mi WNW 8.1 mph - N/A   Clear
1:54 PM 61.0 °F - 46.9 °F 60% 30.13 in 10.0 mi NNW 11.5 mph - N/A   Clear
2:54 PM 61.0 °F - 46.0 °F 58% 30.13 in 10.0 mi NNW 10.4 mph - N/A   Clear
3:54 PM 60.1 °F - 46.9 °F 62% 30.14 in 10.0 mi NNW 8.1 mph - N/A   Clear
4:54 PM 57.0 °F - 46.0 °F 67% 30.16 in 10.0 mi NW 4.6 mph - N/A   Clear
5:54 PM 54.0 °F - 45.0 °F 72% 30.18 in 10.0 mi NW 4.6 mph - N/A   Clear
6:54 PM 52.0 °F - 45.0 °F 77% 30.19 in 10.0 mi NW 3.5 mph - N/A   Clear
7:54 PM 52.0 °F - 45.0 °F 77% 30.20 in 10.0 mi NW 4.6 mph - N/A   Clear
8:54 PM 50.0 °F - 45.0 °F 83% 30.20 in 8.0 mi NW 3.5 mph - N/A   Clear
9:54 PM 48.0 °F - 45.0 °F 89% 30.22 in 7.0 mi NNW 4.6 mph - N/A   Clear
10:54 PM 46.9 °F - 44.1 °F 90% 30.22 in 6.0 mi NNW 3.5 mph - N/A   Clear
11:54 PM 43.0 °F 39.5 °F 41.0 °F 93% 30.22 in 1.8 mi East 5.8 mph - N/A   Clear